Weather History for Andover, NJ

Change the Weather History Date:

Wednesday, March 20, 2013

  Actual Average (KFWN) Record (KFWN)
Temperature  
Mean Temperature 34 °F -  
Max Temperature 42 °F 47 °F 75 °F (2012)
Min Temperature 28 °F 24 °F -5 °F (1967)
Degree Days  
Heating Degree Days 30    
Moisture  
Dew Point 17 °F    
Average Humidity 51    
Maximum Humidity 73    
Minimum Humidity 33    
Precipitation  
Precipitation 0.00 in - - ()
Sea Level Pressure  
Sea Level Pressure 29.85 in    
Wind  
Wind Speed 5 mph (WSW)    
Max Wind Speed 17 mph    
Max Gust Speed 25 mph    
Averages and records for this station are not official NWS values.
T = Trace of Precipitation, MM = Missing Value Source: NWS Daily Summary

Daily Weather History Graph

Daily Weather History Graph

Search for Another Location

Airport:

Trip Planner

Search our weather history database for the weather conditions in past years. The results will help you decide how hot, cold, wet, or windy it might be!

Date:

Astronomy

Mar. 20, 2013 Rise Set
Actual Time 7:01 AM EDT 7:11 PM EDT
Civil Twilight 6:34 AM EDT 7:38 PM EDT
Nautical Twilight 6:02 AM EDT 8:10 PM EDT
Astronomical Twilight 5:29 AM EDT 8:43 PM EDT
Moon 12:41 PM EDT (3/20) 2:42 AM EDT (3/20)
Length of Visible Light 13h 04m
Length of Day
12h 09m
First Quarter, 59% of the Moon is Illuminated
Mar 20
First Quarter
Mar 27
Full
Apr 3
Last Quarter
Apr 10
New
Apr 18
First Quarter

Hourly Weather History & Observations

Time (EDT) Temp. Windchill Dew Point Humidity Pressure Visibility Wind Dir Wind Speed Gust Speed Precip Events Conditions
12:54 AM 33.1 °F 27.7 °F 12.9 °F 43% 29.85 in - Variable 5.8 mph - N/A   Unknown
1:54 AM 32.0 °F 27.5 °F 14.0 °F 48% 29.86 in - Variable 4.6 mph - N/A   Unknown
2:54 AM 30.9 °F 27.5 °F 16.0 °F 54% 29.87 in - Variable 3.5 mph - N/A   Unknown
3:54 AM 30.0 °F 26.5 °F 16.0 °F 56% 29.87 in - Variable 3.5 mph - N/A   Unknown
4:54 AM 28.9 °F 25.2 °F 17.1 °F 61% 29.88 in - Variable 3.5 mph - N/A   Unknown
5:54 AM 28.9 °F - 17.1 °F 61% 29.88 in - Calm Calm - N/A   Unknown
6:54 AM 30.0 °F 23.2 °F 17.1 °F 59% 29.88 in - SW 6.9 mph - N/A   Unknown
7:54 AM 30.9 °F 24.3 °F 17.1 °F 57% 29.89 in - SW 6.9 mph - N/A   Unknown
8:54 AM 32.0 °F 27.5 °F 17.1 °F 54% 29.89 in - Variable 4.6 mph - N/A   Unknown
9:54 AM 32.0 °F 25.6 °F 18.0 °F 56% 29.89 in - Variable 6.9 mph 17.3 mph N/A   Unknown
10:54 AM 34.0 °F 26.0 °F 17.1 °F 50% 29.90 in - WSW 10.4 mph 19.6 mph N/A   Unknown
11:54 AM 36.0 °F 26.0 °F 15.1 °F 43% 29.88 in - WSW 17.3 mph 24.2 mph N/A   Unknown
12:54 PM 36.0 °F 30.3 °F 15.1 °F 43% 29.86 in - SW 6.9 mph 25.3 mph N/A   Unknown
1:54 PM 39.0 °F 32.8 °F 16.0 °F 39% 29.83 in - SW 9.2 mph - N/A   Unknown
2:54 PM 39.0 °F 34.0 °F 14.0 °F 36% 29.81 in - West 6.9 mph 17.3 mph N/A   Unknown
3:54 PM 39.9 °F 35.8 °F 12.9 °F 33% 29.80 in - Variable 5.8 mph - N/A   Unknown
4:54 PM 41.0 °F 36.4 °F 16.0 °F 36% 29.80 in - Variable 6.9 mph 18.4 mph N/A   Unknown
5:54 PM 39.9 °F 37.8 °F 17.1 °F 40% 29.80 in - Variable 3.5 mph - N/A   Unknown
6:54 PM 39.0 °F 32.3 °F 16.0 °F 39% 29.80 in - West 10.4 mph 21.9 mph N/A   Unknown
7:54 PM 34.0 °F - 19.9 °F 56% 29.81 in - Calm Calm - N/A   Unknown
8:54 PM 32.0 °F - 24.1 °F 73% 29.82 in - Calm Calm - N/A   Unknown
9:54 PM 34.0 °F - 23.0 °F 64% 29.84 in - Calm Calm - N/A   Unknown
10:54 PM 34.0 °F - 21.9 °F 61% 29.86 in - Calm Calm - N/A   Unknown
11:54 PM 34.0 °F 29.8 °F 21.0 °F 59% 29.86 in - NNW 4.6 mph - N/A   Unknown